Regional Weather Roundup
Issued by NWS

Home | Current Version | Previous Version | Graphics & Text | Print | Product List | Glossary On
Versions: 1 2 3 4 5 6 7 8 9 10 11 12 13 14 15 16 17 18 19 20 21 22 23 24 25 26 27 28 29 30 31 32 33 34 35 36 37 38 39 40 41 42 43 44 45 46 47 48 49 50
000
ASUS44 KMEG 291610
RWRTN
TENNESSEE HOURLY STATE WEATHER ROUNDUP
NATIONAL WEATHER SERVICE MEMPHIS TN
1100 AM CDT THU SEP 29 2016

TNZ002-004-019-021-049-052-054-088>092-291700-
WEST TENNESSEE

CITY           SKY/WX    TMP DP  RH WIND       PRES   REMARKS
MEMPHIS INTL   SUNNY     68  51  54 VRB7      30.17S
NWS MEMPHIS      N/A     65 N/A N/A MISG        N/A
JACKSON        MOSUNNY  N/A N/A N/A NW6       30.15R
DYERSBURG      SUNNY    N/A N/A N/A MISG        N/A
UNION CITY     PTSUNNY   61  54  77 NW13      30.14R
PARIS          CLOUDY    57  50  77 NW7       30.14R
HUNTINGDON     CLOUDY    63  52  67 NW8       30.12S
LEXINGTON      SUNNY     64  52  63 NW9       30.12S
$$

TNZ008-025-027-028-033-062-065-066-291700-
NORTH MIDDLE TENNESSEE

CITY           SKY/WX    TMP DP  RH WIND       PRES   REMARKS
NASHVILLE      PTSUNNY   63  50  62 N7        30.10S
PORTLAND       CLOUDY    57  52  82 CALM      30.10S
CLARKSVILLE    CLOUDY    57  50  77 NW8       30.11R
SMYRNA         CLOUDY    61  51  70 NW8       30.11
COOKEVILLE     CLOUDY    57  52  82 CALM      30.09S
GALLATIN       CLOUDY    59  52  77 VRB3      30.13R
CROSSVILLE     PTSUNNY   60  46  59 NW8       30.08R
$$

TNZ061-075-076-078-094-096-097-291700-
SOUTH MIDDLE TENNESSEE

CITY           SKY/WX    TMP DP  RH WIND       PRES   REMARKS
FAYETTEVILLE   PTSUNNY   63  48  59 VRB6G14   30.10S
TULLAHOMA      MOSUNNY   59  46  63 W9        30.11S
WINCHESTER     SUNNY     63  48  59 N8        30.10S
MCMINNVILLE    PTSUNNY   61  48  63 NW8       30.10R
COLUMBIA       MOSUNNY   64  57  77 W5        30.09S
SHELBYVILLE    PTSUNNY   63  52  67 VRB6      30.11S
$$

TNZ017-018-042-046-047-291700-
NORTHEAST TENNESSEE

CITY           SKY/WX    TMP DP  RH WIND       PRES   REMARKS
TRI CITIES     CLOUDY    66  55  67 CALM      30.01R
ELIZABETHTON   CLOUDY    64  57  77 VRB6      30.00R
$$

TNZ012-013-036-069-073-074-291700-
CENTRAL EAST TENNESSEE

CITY           SKY/WX    TMP DP  RH WIND       PRES   REMARKS
KNOXVILLE      PTSUNNY   65  54  67 CALM      30.03R
OAK RIDGE      PTSUNNY   67  49  52 VRB3      30.05S
DOWNTOWN KNOXV CLOUDY    66  54  63 CALM      30.04S
GATLINBURG     CLOUDY    63  54  72 SW7       30.04R
MORRISTOWN     CLOUDY    63  55  77 VRB5      30.03R
JACKSBORO      PTSUNNY   61  50  67 NE12      30.08S
$$

TNZ083-085-099-291700-
SOUTHEAST TENNESSEE

CITY           SKY/WX    TMP DP  RH WIND       PRES   REMARKS
CHATTANOOGA    MOSUNNY   69  47  45 NW12      30.05S
$$

SKY/WX REPORTED AS FAIR MEANS FEW OR NO CLOUDS BELOW
12 THOUSAND FEET.




USA.gov is the U.S. government's official web portal to all federal, state and local government web resources and services.